EHI
0 0 0 0 0 0 0 0 0 0 0 0 0 0 0 0 0 0 0 0 0 0 0 0 0 0 1 2 3 2 1 0 0 0 0 0 0 0 0 0 0 0 0
0 0 0 0 0 0 0 0 0 0 0 0 0 0 0 0 0 0 0 0 0 0 0 1 1 1 1 2 3 2 1 0 0 0 0 0 0 0 0 0 0 0 0
0 0 0 0 0 0 0 0 0 0 0 0 0 0 0 0 0 0 0 0 0 0 0 1 2 2 2 3 3 2 1 0 0 0 0 0 0 0 0 0 0 0 0
0 0 0 0 0 0 0 0 0 0 0 0 0 0 0 0 0 0 0 0 0 0 0 1 2 3 3 3 2 1 0 0 0 0 0 0 0 0 0 0 0 0 0
0 0 0 0 0 0 0 0 0 0 0 0 0 0 0 0 0 0 0 0 0 0 0 0 1 1 2 2 1 1 0 0 0 0 0 0 0 0 0 0 0 0 0
0 0 0 0 0 0 0 0 0 0 0 0 0 0 0 0 0 0 0 0 0 0 0 0 0 0 1 2 2 1 1 0 0 0 0 0 0 0 0 0 0 0 0
0 0 0 0 0 0 0 0 0 0 0 0 0 0 0 0 0 0 0 0 0 0 0 0 0 0 1 2 2 2 1 0 0 0 0 0 0 0 0 0 0 0 0
0 0 0 0 0 0 0 0 0 0 0 0 0 0 0 0 0 0 0 0 0 0 0 0 0 0 0 1 1 1 0 0 0 0 0 0 0 0 0 0 0 0 0
0 0 0 0 0 0 0 0 0 0 0 0 0 0 0 0 0 0 0 0 0 0 0 0 0 0 0 0 0 0 0 0 0 0 0 0 0 0 0 0 0 0 0
0 0 0 0 0 0 0 0 0 0 0 0 0 0 0 0 0 0 0 0 0 0 0 0 0 0 0 0 0 0 0 0 0 0 0 0 0 0 0 0 0 0 0
0 0 0 0 0 0 0 0 0 0 0 0 0 0 0 0 0 0 0 0 0 0 0 0 0 0 0 0 0 0 0 0 0 0 0 0 0 0 0 0 0 0 0
0 0 0 0 0 0 0 0 0 0 0 0 0 0 0 0 0 0 0 0 0 0 0 0 0 0 0 0 0 0 0 0 0 0 0 0 0 0 0 0 0 0 0
0 0 0 0 0 0 0 0 0 0 0 0 0 0 0 0 0 0 0 0 0 0 0 0 0 0 0 0 0 0 0 0 0 0 0 0 0 0 0 0 0 0 0
0 0 0 0 0 0 0 0 0 0 0 0 0 0 0 0 0 0 0 0 0 0 0 0 0 0 0 0 0 0 0 0 0 0 0 0 0 0 0 0 0 0 0
0 0 0 0 0 0 0 0 0 0 0 0 0 0 0 0 0 0 0 0 0 0 0 0 0 0 0 0 0 0 0 0 0 0 0 0 0 0 0 0 0 0 0
0 0 0 0 0 0 0 0 0 0 0 0 0 0 0 0 0 0 0 0 0 0 0 0 0 0 0 0 0 0 0 0 0 0 0 0 0 0 0 0 0 0 0
0 0 0 0 0 0 0 0 0 0 0 0 0 0 0 0 0 0 0 0 0 0 0 0 0 0 0 0 0 0 0 0 0 0 0 0 0 0 0 0 0 0 0
0 0 0 0 0 0 0 0 0 0 0 0 0 0 0 0 0 0 0 0 0 0 0 0 0 0 0 0 0 0 0 0 0 0 0 0 0 0 0 0 0 0 0
0 0 0 0 0 0 0 0 0 0 0 0 0 0 0 0 0 0 0 0 0 0 0 0 0 0 0 0 0 0 0 0 0 0 0 0 0 0 0 0 0 0 0
0 0 0 0 0 0 0 0 0 0 0 0 0 0 0 0 0 0 0 0 0 0 0 0 0 0 0 0 0 0 0 0 0 0 0 0 0 0 0 0 0 0 0
0 0 0 0 0 0 0 0 0 0 0 0 0 0 0 0 0 0 0 0 0 0 0 0 0 0 0 0 0 0 0 0 0 0 0 0 0 0 0 0 0 0 0
0 0 0 0 0 0 0 0 0 0 0 0 0 0 0 0 0 0 0 0 0 0 0 0 0 0 0 0 0 0 0 0 0 0 0 0 0 0 0 0 0 0 0
0 0 0 0 0 0 0 0 0 0 0 0 0 0 0 0 0 0 0 0 0 0 0 0 0 0 0 0 0 0 0 0 0 0 0 0 0 0 0 0 0 0 0
0 0 0 0 0 0 0 0 0 0 0 0 0 0 0 0 0 0 0 0 0 0 0 0 0 0 0 0 0 0 0 0 0 0 0 0 0 0 0 0 0 0 0
0 0 0 0 0 0 0 0 0 0 0 0 0 0 0 0 0 0 0 0 0 0 0 0 0 0 0 0 0 0 0 0 0 0 0 0 0 0 0 0 0 0 0
0 0 0 0 0 0 0 0 0 0 0 0 0 0 0 0 0 0 0 0 0 0 0 0 0 0 0 0 0 0 0 0 0 0 0 0 0 0 0 0 0 0 0
Wind_Speed
2 2 2 1 2 2 1 2 2 2 3 3 3 3 3 3 3 3 2 5 5 5 6 6 6 6 6 6 6 6 6 7 7 7 7 7 7 7 6 7 7 6 6
2 2 2 1 2 1 1 1 2 2 2 2 3 3 3 3 3 3 2 3 5 5 5 6 6 5 5 5 5 5 5 5 5 5 5 5 6 6 6 6 6 6 6
2 2 2 2 1 1 1 1 2 2 2 2 3 3 3 3 3 3 3 2 2 4 5 5 6 5 5 5 4 4 4 4 4 4 4 4 4 4 4 5 5 5 5
2 2 2 1 1 1 1 1 1 2 2 2 2 2 2 2 2 2 2 2 2 2 3 5 6 6 5 4 4 4 4 4 4 3 3 3 3 3 3 2 3 3 4
2 1 1 1 1 1 1 1 1 1 1 1 1 2 2 1 1 2 2 2 2 2 2 4 6 6 6 5 4 4 4 5 5 4 4 4 3 2 2 2 2 3 3
2 2 1 1 1 1 1 1 1 1 1 1 1 2 2 1 1 1 1 1 1 1 2 2 2 3 5 5 5 4 4 5 4 4 4 4 3 2 2 2 2 2 2
2 2 1 1 1 1 0 1 1 1 1 1 1 1 1 1 1 1 1 1 1 1 1 2 1 1 1 3 4 3 3 3 4 4 3 3 2 2 2 2 2 2 1
2 1 1 1 0 0 0 0 1 1 0 0 1 0 0 1 1 0 0 0 0 0 1 1 1 1 1 1 2 3 2 2 2 2 2 2 2 2 1 1 1 2 2
1 1 0 0 0 0 0 0 1 1 1 1 0 1 1 2 1 1 1 0 0 0 0 1 1 1 1 1 1 1 1 1 0 1 0 1 1 2 2 2 1 1 1
1 1 1 1 0 0 0 1 0 0 1 1 1 1 1 1 1 1 1 1 1 1 0 0 1 1 1 1 1 0 0 1 1 1 1 2 2 3 3 3 2 2 2
1 1 0 0 0 0 0 0 0 0 1 1 1 1 1 1 1 1 2 1 1 1 1 1 1 1 1 1 1 0 0 1 2 3 3 3 3 3 4 4 4 4 4
1 0 1 1 0 0 1 1 1 1 1 1 1 1 1 1 1 1 2 2 2 2 1 1 1 1 1 1 1 1 2 2 3 4 4 4 4 4 5 5 5 4 4
1 1 1 1 1 1 1 1 1 2 2 1 1 1 1 2 1 1 1 1 2 2 1 2 2 1 1 1 1 2 2 3 3 4 5 5 4 5 5 6 6 5 5
1 1 1 1 1 1 1 1 1 2 2 2 2 2 2 2 1 1 1 1 1 2 2 2 1 1 1 0 1 3 2 4 4 5 5 5 5 5 6 6 6 5 5
1 1 1 1 1 1 1 1 2 2 2 2 3 2 2 2 2 1 1 2 2 2 3 2 1 1 1 1 2 2 2 5 5 5 6 6 6 5 6 6 6 6 6
1 1 1 2 1 1 1 1 2 2 2 2 2 3 3 2 2 2 2 2 2 3 3 2 2 1 1 2 4 2 3 6 6 6 6 6 6 6 6 7 6 6 6
1 1 2 2 2 2 2 2 2 2 2 3 2 3 3 3 2 2 2 2 2 2 4 3 2 1 2 2 3 3 3 4 4 7 7 7 7 7 7 8 7 7 7
2 2 2 2 2 2 2 2 3 3 3 3 3 3 3 3 3 3 2 3 3 3 3 5 3 2 3 3 3 3 3 3 3 6 7 8 8 8 8 8 8 8 8
2 2 2 2 2 2 2 3 3 3 4 4 3 4 4 3 4 3 3 3 3 3 2 3 3 2 2 2 3 3 4 3 4 5 7 8 9 9 9 9 8 8 8
2 2 2 3 2 3 3 2 3 3 3 3 3 4 4 4 4 4 4 4 3 3 3 3 3 3 3 2 2 2 4 3 4 3 5 6 8 9 9 10 9 8 9
3 3 3 3 3 2 2 2 3 3 3 3 3 4 4 5 6 5 5 4 4 3 3 3 4 3 3 2 3 2 4 3 4 3 2 3 4 4 5 8 9 10 10
3 3 3 3 3 3 4 5 4 3 3 4 4 4 5 5 6 8 9 9 7 5 5 4 4 5 5 4 3 3 3 3 4 2 3 4 3 4 4 4 8 10 10
3 3 3 3 3 4 6 6 6 4 4 4 4 4 4 4 5 4 7 8 8 9 9 6 6 6 5 4 4 4 4 4 5 3 2 5 3 5 4 6 10 10 10
3 3 3 3 3 4 7 7 7 4 4 4 4 5 5 5 5 5 4 4 5 5 6 5 5 5 5 5 5 5 5 5 4 3 3 5 4 4 4 4 9 11 11
3 3 4 3 3 5 7 7 7 3 3 4 4 4 5 5 7 8 5 5 5 5 7 8 9 8 10 10 7 3 3 3 5 4 3 3 3 3 3 4 6 10 11
3 4 4 3 4 4 7 7 7 3 4 4 3 4 6 6 8 8 5 5 6 5 4 5 6 7 6 7 8 5 4 4 4 4 3 2 2 1 3 3 3 4 5
Wind_Direction
83 80 75 63 53 41 23 3 4 25 29 23 19 30 36 33 50 61 46 53 63 77 96 107 110 110 114 112 107 102 99 98 97 93 88 82 80 81 82 79 75 71 72
73 81 78 64 52 42 19 10 12 28 32 32 21 23 31 32 39 54 62 48 53 64 77 90 98 110 108 114 117 112 108 106 104 100 93 88 83 78 76 77 76 71 67
62 60 69 58 39 31 20 13 26 41 43 43 29 20 22 27 31 39 50 52 46 54 65 77 82 92 103 101 110 114 123 119 111 108 102 93 90 83 76 75 72 72 70
60 53 59 56 32 29 35 24 31 48 45 42 31 18 17 19 24 39 48 43 38 51 56 65 70 68 79 87 114 113 111 117 113 105 102 98 98 91 86 89 81 73 68
54 53 63 55 39 42 48 24 26 53 55 42 35 23 12 16 7 34 49 47 37 54 72 74 70 62 57 57 77 105 106 104 100 97 90 84 84 84 85 77 80 75 71
44 36 61 60 39 52 40 44 54 44 62 67 46 24 354 358 26 38 36 49 31 54 79 85 79 66 56 50 55 68 87 94 89 85 81 77 73 72 78 88 83 81 74
47 47 35 54 25 67 53 22 66 84 44 55 64 7 330 343 53 48 25 35 36 48 84 91 89 79 66 53 50 51 61 75 78 73 63 61 58 56 56 64 73 78 67
49 42 50 70 23 31 105 86 78 70 309 24 107 124 271 309 317 305 63 59 327 67 110 112 111 103 95 84 46 41 37 62 78 77 68 45 35 24 0 359 32 44 42
51 51 50 50 52 109 173 185 157 167 198 280 354 152 177 221 280 281 258 191 324 19 154 162 138 121 122 112 102 27 14 356 18 45 34 347 340 340 340 335 334 337 347
66 31 34 29 62 69 178 232 130 193 173 211 259 282 258 206 159 275 284 253 208 186 202 67 144 163 152 141 112 70 313 296 284 276 278 291 305 307 304 303 303 301 305
83 69 47 4 12 218 209 222 222 199 207 211 217 247 278 289 245 182 245 268 284 231 206 223 198 194 169 152 154 204 269 292 282 276 271 272 281 289 292 297 297 298 300
333 5 357 319 279 262 236 222 213 203 231 245 241 233 218 219 218 204 228 245 261 256 230 224 211 197 180 164 182 230 260 277 272 272 268 265 271 280 282 284 288 292 294
316 303 309 283 288 286 285 269 232 213 217 228 232 240 251 256 267 247 224 237 264 280 247 240 218 199 186 150 191 239 247 260 266 268 266 264 269 276 279 277 279 286 291
227 256 277 278 277 280 284 281 256 234 225 221 234 234 240 249 267 255 235 200 250 281 258 245 247 184 155 156 264 265 240 253 259 265 268 268 270 274 275 277 277 281 288
242 239 258 283 275 260 261 262 259 257 244 234 228 231 236 247 247 243 242 193 190 231 255 243 234 216 211 227 262 268 254 252 257 262 268 269 269 269 271 275 280 280 286
289 235 241 249 270 275 265 254 262 262 254 249 232 225 237 242 241 237 237 225 202 210 245 253 250 257 265 269 270 268 265 260 254 257 262 264 261 260 263 266 271 275 277
290 267 248 240 240 252 258 255 257 256 252 255 243 230 239 236 234 235 231 226 225 212 242 272 279 282 265 266 277 270 262 250 240 248 257 257 256 258 259 260 263 267 268
303 285 263 254 251 246 238 238 251 255 250 250 248 237 240 243 243 239 232 233 231 224 227 255 269 267 261 255 257 265 273 261 239 246 254 257 256 256 258 257 257 260 261
310 308 292 265 261 257 249 246 243 246 244 247 246 242 242 239 246 245 236 234 237 244 234 246 265 266 268 265 269 272 274 268 254 248 251 254 255 257 258 258 256 257 259
312 303 297 284 272 269 265 267 267 257 252 253 252 249 245 239 242 243 241 237 236 239 240 244 257 263 265 267 257 271 279 267 258 252 255 260 259 260 259 254 254 257 261
314 310 308 306 293 274 270 273 269 268 264 263 262 258 254 252 253 252 249 239 234 234 233 239 249 255 252 256 249 254 266 276 267 240 233 249 250 246 246 251 251 254 259
308 310 308 302 299 291 290 289 288 273 272 270 271 269 264 256 257 259 260 258 251 240 232 231 242 248 251 249 250 250 255 274 274 241 225 252 244 244 239 232 248 255 257
303 300 301 301 295 298 295 287 284 281 271 265 265 266 267 265 262 258 263 266 263 260 250 239 240 247 253 250 249 255 256 256 260 254 262 264 241 243 240 244 248 252 256
298 291 294 297 298 301 306 300 295 287 275 269 265 262 262 261 255 257 260 263 260 260 262 258 252 256 261 257 248 251 254 269 278 260 234 258 250 247 252 242 248 250 252
291 289 287 289 292 298 302 301 297 285 277 275 271 268 267 264 266 263 256 259 266 270 272 272 272 273 271 270 263 263 262 264 272 267 235 239 254 269 258 246 244 249 252
286 285 287 287 284 290 294 295 292 279 278 278 276 275 276 278 279 271 251 245 256 265 271 280 280 282 280 275 270 249 237 249 265 268 233 227 253 268 279 255 238 236 243